www.pogodaiklimat.ru
ПОГОДА на Кюльмяпихлая
Время
(UTC), дата
19 4.12
20 4.12
21 4.12
22 4.12
23 4.12
00 5.12
01 5.12
02 5.12
03 5.12
04 5.12
05 5.12
06 5.12
07 5.12
08 5.12
09 5.12
10 5.12
11 5.12
12 5.12
13 5.12
14 5.12
15 5.12
16 5.12
17 5.12
18 5.12
19 5.12
20 5.12
21 5.12
22 5.12
23 5.12
00 6.12
01 6.12
02 6.12
03 6.12
04 6.12
05 6.12
06 6.12
07 6.12
08 6.12
10 6.12
11 6.12
12 6.12
13 6.12
14 6.12
15 6.12
16 6.12
17 6.12
18 6.12
19 6.12
20 6.12
21 6.12
22 6.12
23 6.12
00 7.12
01 7.12
02 7.12
03 7.12
04 7.12
05 7.12
06 7.12
07 7.12
08 7.12
09 7.12
10 7.12
11 7.12
12 7.12
13 7.12
14 7.12
15 7.12
16 7.12
17 7.12
18 7.12
19 7.12
20 7.12
21 7.12
22 7.12
23 7.12
00 8.12
01 8.12
02 8.12
03 8.12
04 8.12
05 8.12
06 8.12
07 8.12
08 8.12
09 8.12
10 8.12
11 8.12
12 8.12
13 8.12
14 8.12
15 8.12
16 8.12
17 8.12
18 8.12
19 8.12
20 8.12
21 8.12
22 8.12
23 8.12
00 9.12
01 9.12
02 9.12
03 9.12
04 9.12
05 9.12
06 9.12
07 9.12
08 9.12
09 9.12
10 9.12
11 9.12
12 9.12
13 9.12
14 9.12
15 9.12
16 9.12
17 9.12
18 9.12
19 9.12
20 9.12
21 9.12
22 9.12
23 9.12
00 10.12
01 10.12
02 10.12
03 10.12
04 10.12
05 10.12
06 10.12
07 10.12
08 10.12
09 10.12
10 10.12
11 10.12
12 10.12
13 10.12
14 10.12
15 10.12
16 10.12
17 10.12
18 10.12
19 10.12
20 10.12
21 10.12
22 10.12
23 10.12
00 11.12
01 11.12
02 11.12
03 11.12
04 11.12
05 11.12
06 11.12
07 11.12
08 11.12
09 11.12
10 11.12
11 11.12
12 11.12
13 11.12
14 11.12
15 11.12
16 11.12
17 11.12
18 11.12
Ветер
(напр.,м/с)
Видим. Явления Облачность Т
(С)
Тd
(С)
f
(%)
Тe
(С)
Тes
(С)
Комфортность P
(гПа)
Po
(гПа)
Тmin
(С)
Tmax
(С)
R
(мм)
R24
(мм)
S
(см)
ЮЗ 12-14
{14}
30 км 10/0 100 м
[]
+3.6 +2.9 95 -4 -4 1003.6 1000.1
ЮЗ 12-15
{15}
26 км 10/0 100 м
[]
+3.8 +3.0 95 -4 -4 1003.2 999.7
Ю 14-15
{17}
17 км 10/0 100 м
[]
+3.9 +3.2 95 -4 -4 1002.3 998.8
Ю 13-15
{15}
18 км 9/0 200 м
[]
+3.7 +3.1 96 -4 -4 1001.5 998.0
Ю 14-16
{16}
17 км ясно +4.1 +3.3 95 -4 -4 1000.7 997.2
Ю 12-14
{16}
14 км ясно +4.2 +3.3 94 -3 -3 1000.2 996.8
ЮЗ 14-16
{17}
17 км ясно +5.2 +3.5 89 -2 -2 999.4 995.9
ЮЗ 15-17
{17}
17 км 9/3 300 м
[]
+5.4 +3.3 86 -2 -2 999.2 995.8
ЮЗ 17-20
{20}
13 км 10/0 300 м
[]
+4.9 +3.2 89 -3 -3 998.8 995.3
ЮЗ 15-18
{19}
13 км 9/9 300 м
[]
+5.1 +3.2 88 -3 -3 998.6 995.1
ЮЗ 16-18
{18}
12 км 9/9 300 м
[]
+5.1 +3.4 89 -3 -3 998.1 994.6
ЮЗ 16-18
{19}
13 км 9/3 300 м
[]
+5.0 +3.5 90 -3 -3 997.5 994.1 +3.4 +5.5
ЮЗ 15-18
{18}
13 км 9/8 600 м
[]
+5.1 +3.5 89 -3 -3 997.2 993.8
ЮЗ 15-18
{18}
15 км 10/3 600 м
[]
+5.2 +3.7 90 -2 -2 996.8 993.4
ЮЗ 15-17
{20}
16 км 6/1 300 м
[]
+5.5 +3.9 89 -2 -2 996.1 992.7
ЮЗ 17-20
{20}
15 км 9/0
[]
+5.7 +4.0 89 -2 -2 995.2 991.8
ЮЗ 17-19
{21}
13 км 3/0 300 м
[]
+5.6 +4.1 90 -2 -2 994.1 990.7
ЮЗ 15-19
{21}
15 км 1/0 600 м
[]
+5.6 +3.9 89 -2 -2 993.5 990.1
ЮЗ 17-20
{20}
15 км ясно +5.7 +3.3 85 -2 -2 992.8 989.4
ЮЗ 15-19
{20}
14 км ясно +5.7 +3.3 85 -2 -2 991.7 988.3
ЮЗ 19-22
{22}
12 км ясно +5.9 +3.1 82 -2 -2 990.6 987.2
ЮЗ 19-23
{23}
14 км 3/1 600 м
[]
+5.9 +3.1 82 -2 -2 989.9 986.5
ЮЗ 21-25
{25}
13 км 9/0
[]
+5.8 +3.0 82 -2 -2 989.4 985.9
ЮЗ 18-22
{24}
13 км 10/0
[]
+5.9 +3.1 82 -2 -2 989.6 986.2 +4.9 +5.9
ЮЗ 16-19
{20}
14 км 9/0
[]
+5.9 +3.0 82 -1 -1 989.9 986.5
ЮЗ 15-17
{20}
14 км 9/1 1500 м
[]
+5.8 +3.2 83 -1 -1 990.0 986.5
ЮЗ 15-18
{18}
13 км 10/0
[]
+5.8 +3.3 84 -1 -1 989.6 986.2
ЮЗ 16-18
{18}
12 км 9/4 2000 м
[]
+5.9 +3.4 84 -2 -2 989.2 985.8
ЮЗ 14-16
{18}
13 км 10/0 1000 м
[]
+5.8 +3.6 86 -1 -1 988.9 985.5
ЮЗ 13-14
{16}
15 км 10/0 600 м
[]
+5.7 +3.7 87 -1 -1 988.3 984.9
ЮЗ 13-15
{15}
17 км 10/0 600 м
[]
+5.6 +3.8 88 -1 -1 988.0 984.6
ЮЗ 12-12
{14}
16 км 10/0 600 м
[]
+5.5 +3.8 89 -1 -1 987.3 983.9
ЮЗ 13-15
{15}
16 км слаб. морось {туман} 10/0 600 м
[]
+5.7 +3.7 87 -1 -1 986.4 983.0
ЮЗ 12-15
{15}
11 км слаб. дождь 10/0 600 м
[]
+5.4 +4.1 91 -2 -2 985.4 982.0
ЮЗ 14-16
{16}
12 км слаб. морось 10/0 200 м
[]
+5.0 +4.1 94 -3 -3 984.4 981.0
ЮЗ 13-15
{16}
8000 м слаб. дождь 10/0 200 м
[]
+4.9 +4.1 95 -3 -3 984.0 980.6 +4.8 +6.0
ЮЗ 16-18
{19}
5000 м слаб. дождь 10/0 300 м
[]
+4.5 +3.3 92 -4 -4 983.6 980.2
ЮЗ 13-15
{18}
8000 м морось 10/10 300 м
[]
+4.5 +3.2 91 -3 -3 983.6 980.2
ЮЗ 11-12
{14}
22 км в посл. час дождь 10/0 300 м
[]
+4.7 +3.7 93 -2 -2 983.3 979.9
ЮЗ 10-11
{13}
13 км 10/0 200 м
[]
+4.8 +4.0 95 -2 -2 983.4 980.0
ЮЗ 9-10
{12}
7000 м дымка {дождь} 10/0 200 м
[]
+4.8 +4.2 96 -2 -2 983.7 980.3
З 8-8
{10}
19 км 10/0 200 м
[]
+4.8 +4.1 95 -1 -1 984.1 980.7
ЮЗ 7-9
{9}
24 км 10/0 200 м
[]
+4.5 +3.9 96 -1 -1 984.6 981.1
З 9-11
{11}
18 км 10/0 200 м
[]
+4.8 +4.0 95 -2 -2 985.5 982.1
З 8-9
{10}
20 км в посл. час морось 9/0 200 м
[]
+4.5 +3.6 94 -2 -2 985.9 982.5
З 8-9
{10}
23 км 10/0 200 м
[]
+4.6 +3.8 95 -2 -2 986.4 983.0
З 8-9
{10}
27 км {ливн. осадки, морось} 9/9 200 м
[]
+4.5 +3.6 94 -2 -2 986.8 983.4 +4.3 +4.9
З 9-10
{10}
27 км 10/10 200 м
[]
+4.5 +3.6 94 -2 -2 987.6 984.1
З 8-10
{11}
20 км 3/0 200 м
[]
+4.2 +3.5 95 -2 -2 987.9 984.5
З 7-8
{9}
23 км 1/0 100 м
[]
+4.2 +3.4 95 -2 -2 988.6 985.2
З 7-7
{8}
23 км 9/0
[]
+4.1 +3.4 95 -2 -2 988.7 985.3
ЮЗ 7-7
{7}
30 км 9/0
[]
+4.3 +3.6 95 -2 -2 989.2 985.8
Ю 5-5
{7}
30 км ясно +3.6 +3.0 96 -2 -2 989.3 985.8
Ю 5-6
{6}
35 км 9/0 100 м
[]
+3.7 +3.3 97 -2 -2 988.9 985.4
ЮВ 5-6
{6}
40 км 10/0 100 м
[]
+3.4 +3.0 97 -2 -2 988.4 984.9
ЮВ 6-6
{7}
23 км 10/0 100 м
[]
+3.4 +2.9 97 -2 -2 988.0 984.5
ЮВ 6-7
{7}
40 км 10/0
[]
+3.5 +3.0 97 -2 -2 986.9 983.4
ЮВ 6-7
{8}
14 км морось 10/10 100 м
[]
+3.5 +3.1 97 -2 -2 985.9 982.5
В 5-6
{7}
2500 м слаб. дождь со снегом 10/0 600 м
[]
+3.5 +3.3 99 -2 -2 984.8 981.3 +3.3 +4.6
СВ 6-7
{7}
8000 м дождь 10/0 300 м
[]
+3.3 +3.1 99 -3 -3 984.1 980.7
СВ 6-7
{7}
15 км слаб. дождь 10/0 300 м
[]
+3.1 +3.0 99 -3 -3 983.4 980.0
С 8-9
{9}
11 км слаб. дождь 10/0 300 м
[]
+2.8 +2.5 98 -4 -4 983.0 979.5
СВ 6-7
{8}
10 км слаб. ливневой дождь 10/0 300 м
[]
+2.4 +2.0 97 -4 -4 981.9 978.5
СВ 6-7
{7}
22 км слаб. ливневой дождь 10/0 300 м
[]
+2.2 +1.9 98 -4 -4 980.9 977.5
С 8-9
{9}
1200 м дождь 10/0 100 м
[]
+2.1 +1.8 98 -5 -5 980.5 977.1
-12
{12}
3600 м слаб. снег 10/10 100 м
[]
+1.4 +1.2 99 980.1 976.7
С 12-13
{13}
10 км слаб. дождь со снегом 10/10 100 м
[]
+2.3 +2.0 98 -6 -6 980.6 977.1
С 13-15
{16}
14 км слаб. дождь 10/10 200 м
[]
+2.6 +1.8 94 -6 -6 981.2 977.8
С 12-14
{16}
7000 м слаб. дождь 10/0 200 м
[]
+2.8 +2.0 94 -5 -5 981.9 978.4
С 11-12
{13}
13 км слаб. ливневой дождь 10/10 300 м
[]
+3.0 +2.1 94 -5 -5 982.8 979.3
СЗ 14-16
{17}
21 км слаб. морось 10/10 300 м
[]
+3.4 +1.9 90 -5 -5 983.0 979.6 +1.3 +3.6
СЗ 14-16
{16}
20 км слаб. ливневой дождь 9/9 300 м
[]
+3.3 +1.7 89 -5 -5 983.7 980.3
СЗ 13-14
{15}
22 км в посл. час морось 10/10 300 м
[]
+3.6 +1.6 87 -4 -4 984.2 980.8
СЗ 15-16
{16}
24 км {ливн. осадки, морось} 9/8 300 м
[]
+3.7 +1.0 83 -4 -4 984.6 981.2
СЗ 14-15
{17}
23 км 3/0 300 м
[]
+3.6 +0.8 82 -4 -4 985.2 981.8
СЗ 15-16
{16}
25 км 1/0 300 м
[]
+3.5 +0.7 82 -5 -5 985.6 982.2
З 15-17
{18}
20 км {ливн. осадки, морось} 4/0 300 м
[]
+3.3 +0.7 83 -5 -5 986.1 982.7
З 15-17
{17}
22 км 1/0 300 м
[]
+3.3 +0.2 80 -5 -5 986.7 983.3
З 15-16
{17}
24 км 3/0 600 м
[]
+3.1 0.0 80 -5 -5 987.0 983.6
З 13-15
{16}
26 км 3/0 600 м
[]
+3.0 -0.3 79 -5 -5 987.2 983.7
З 12-14
{14}
24 км 3/0 600 м
[]
+2.8 -0.5 79 -5 -5 987.3 983.9
З 12-13
{14}
25 км ясно +2.7 -0.9 77 -5 -5 987.2 983.7
З 11-13
{13}
21 км 8/0 600 м
[]
+2.6 -0.6 79 -5 -5 987.4 983.9 +2.5 +3.7
З 10-11
{13}
20 км 1/0 300 м
[]
+2.5 -0.7 79 -5 -5 987.3 983.8
ЮЗ 10-12
{12}
26 км ясно +2.6 -0.8 78 -5 -5 987.1 983.7
ЮЗ 11-12
{12}
30 км 5/0
[]
+2.8 -0.6 78 -5 -5 986.6 983.1
ЮЗ 11-12
{13}
35 км 8/5 300 м
[]
+2.7 -0.2 81 -5 -5 986.1 982.6
ЮЗ 9-10
{12}
40 км 9/0
[]
+2.7 -0.5 79 -4 -4 985.4 981.9
Ю 10-11
{11}
40 км 9/1 300 м
[]
+2.5 -0.2 82 -5 -5 984.3 980.8
Ю 9-12
{12}
50 км 10/0
[]
+2.7 -0.2 81 -4 -4 983.1 979.6
ЮВ 7-8
{9}
45 км 10/0 1500 м
[]
+2.0 +0.4 89 -5 -5 981.8 978.3
ЮВ 7-8
{10}
4200 м переохл. дождь (гололёд) {морось} 10/0 600 м
[]
+0.8 +0.1 95 -6 -6 980.0 976.5
В 10-11
{12}
5000 м слаб. ледяной дождь 10/10 100 м
[]
+0.8 +0.4 97 -7 -7 977.3 973.8
ЮВ 12-14
{14}
25 км в посл. час снег 10/0 100 м
[]
+1.3 +0.8 96 -7 -7 974.9 971.4
ЮВ 12-14
{17}
9000 м ливневой дождь {снег} 10/0 100 м
[]
+1.7 +1.2 96 -7 -7 972.4 969.0 +0.7 +3.0
ЮВ 12-13
{15}
3000 м слаб. снег 10/0 100 м
[]
+2.5 +2.1 97 -6 -6 970.5 967.1
Ю 13-16
{16}
25 км слаб. дождь 10/0 200 м
[]
+4.8 +4.5 98 -3 -3 968.8 965.4
ЮЗ 17-19
{19}
35 км в посл. час переохл. осадки (гололёд) 10/0 300 м
[]
+6.1 +4.6 90 -1 -1 968.4 965.1
ЮЗ 17-21
{21}
24 км 10/0 300 м
[]
+5.8 +3.6 86 -2 -2 968.6 965.3
ЮЗ 19-24
{24}
18 км 10/0 300 м
[]
+5.4 +3.1 85 -3 -3 969.0 965.6
ЮЗ 19-22
{23}
14 км {ливн. осадки, снег} 10/0 600 м
[]
+5.4 +3.0 85 -3 -3 969.2 965.9
ЮЗ 20-23
{23}
12 км 10/0 600 м
[]
+5.3 +2.6 83 -3 -3 970.0 966.6
ЮЗ 20-23
{24}
13 км 10/0 600 м
[]
+5.3 +2.7 83 -3 -3 970.5 967.2
ЮЗ 17-20
{22}
12 км 10/0 600 м
[]
+5.2 +2.7 84 -3 -3 971.6 968.3
ЮЗ 16-19
{21}
12 км 10/0 600 м
[]
+5.1 +2.7 84 -3 -3 972.4 969.0
ЮЗ 15-17
{20}
12 км 10/0 600 м
[]
+5.1 +2.8 85 -2 -2 973.2 969.8
ЮЗ 15-20
{20}
8000 м ливневой дождь {морось} 10/0 600 м
[]
+5.0 +2.9 86 -3 -3 973.9 970.6 +1.6 +6.3
ЮЗ 14-17
{18}
9000 м слаб. ливневой дождь 10/0 600 м
[]
+5.0 +3.4 89 -2 -2 974.9 971.5
ЮЗ 16-19
{20}
8000 м слаб. ливневой дождь 9/0 300 м
[]
+5.0 +3.2 88 -3 -3 975.8 972.4
З 13-15
{20}
10 км ливневой дождь 9/0 300 м
[]
+4.6 +3.0 89 -3 -3 977.2 973.8
З 10-12
{15}
11 км слаб. ливневой дождь 6/0 300 м
[]
+4.6 +3.0 89 -2 -2 978.3 974.9
СЗ 7-8
{11}
16 км в посл. час дождь 9/9 300 м
[]
+3.5 +2.4 92 -3 -3 979.7 976.3
СЗ 8-9
{9}
23 км {ливн. осадки} 9/9 300 м
[]
+3.2 +1.7 90 -3 -3 981.0 977.6
СЗ 6-8
{8}
29 км 9/8 300 м
[]
+2.9 +0.7 85 -3 -3 982.3 978.9
СЗ 7-8
{8}
29 км 9/9 300 м
[]
+2.6 +0.3 85 -4 -4 983.6 980.2
СЗ 7-8
{9}
35 км в посл. час дождь {ливн. осадки, морось} 10/0 300 м
[]
+2.2 -0.6 82 -4 -4 985.1 981.6
С 6-8
{9}
20 км слаб. ливневой дождь 10/0 300 м
[]
+1.9 -0.1 87 -4 -4 986.4 982.9
С 8-8
{9}
17 км слаб. ливневой дождь 9/0 300 м
[]
+1.5 +0.4 92 -6 -6 987.5 984.1
С 5-7
{8}
21 км ливневой дождь {морось} 10/10 200 м
[]
+1.3 +0.3 93 -5 -5 989.0 985.6 +1.2 +5.2
С 5-6
{7}
12 км слаб. ливневой снег 9/9 300 м
[]
+1.2 +0.3 94 -5 -5 990.6 987.1
С 9-10
{11}
18 км ливневой дождь 9/0 300 м
[]
+1.4 -0.9 85 -6 -6 991.9 988.4
С 10-11
{11}
35 км {ливн. осадки} 9/0 600 м
[]
+1.4 -1.7 80 -6 -6 993.0 989.5
С 9-11
{12}
35 км 9/9 600 м
[]
+1.3 -2.4 76 -6 -6 994.3 990.8
С 9-11
{12}
45 км 9/8 600 м
[]
+1.3 -2.5 76 -6 -6 995.1 991.6
С 10-12
{12}
40 км {ливн. осадки} 9/9 600 м
[]
+1.3 -2.6 75 -6 -6 996.7 993.2
С 10-11
{12}
35 км 9/8 600 м
[]
+1.3 -2.3 77 -6 -6 997.9 994.4
С 10-11
{13}
40 км 9/3 600 м
[]
+1.2 -2.8 75 -6 -6 999.0 995.5
С 11-14
{14}
35 км 9/6 600 м
[]
+1.3 -3.7 69 -6 -6 1000.3 996.8
СЗ 10-12
{13}
40 км 8/6 600 м
[]
+1.2 -3.7 70 -6 -6 1001.3 997.8
СЗ 9-12
{12}
35 км 6/0 600 м
[]
+1.3 -3.4 71 -6 -6 1002.3 998.8
СЗ 8-10
{12}
30 км 5/0 600 м
[]
+1.3 -3.1 72 -6 -6 1003.4 999.8 +1.0 +1.7
СЗ 8-10
{11}
35 км 9/0 600 м
[]
+1.2 -3.6 70 -6 -6 1004.5 1000.9
СЗ 8-11
{11}
35 км 9/0 600 м
[]
+1.3 -3.3 71 -6 -6 1005.9 1002.3
СВ 6-7
{10}
35 км 5/5 600 м
[]
+0.2 -3.1 78 -6 -6 1007.4 1003.9
СВ 4-5
{6}
35 км 10/0 600 м
[]
-0.5 -3.6 80 -6 -6 1009.0 1005.5
СВ 5-6
{6}
40 км 5/0 1000 м
[]
-0.9 -3.8 81 -7 -7 1009.9 1006.3
СВ 3-4
{5}
45 км 8/0 600 м
[]
-0.9 -4.2 78 -6 -6 1011.2 1007.6
С 3-4
{4}
35 км ясно -1.0 -3.8 81 -6 -6 1012.2 1008.6
В 3-4
{4}
40 км ясно -1.5 -4.8 78 -6 -6 1013.1 1009.5
ЮВ 3-4
{4}
50 км ясно -1.8 -5.0 79 -7 -7 1013.8 1010.2
ЮВ 5-5
{5}
50 км ясно -1.5 -4.7 79 -8 -8 1014.3 1010.7
Ю 6-6
{6}
50 км ясно -1.5 -4.5 80 -8 -8 1014.8 1011.2
Ю 6-7
{7}
45 км 6/0
[]
-1.9 -3.8 87 -9 -9 1014.9 1011.3 -2.0 +1.5
Ю 6-7
{8}
50 км 5/0
[]
-1.8 -4.3 83 -9 -9 1014.4 1010.8
Ю 8-10
{10}
45 км 9/0
[]
-1.5 -4.6 79 -9 -9 1014.8 1011.2
ЮВ 9-10
{10}
50 км 10/0
[]
-1.5 -3.4 87 -10 -10 1013.9 1010.3
ЮВ 9-12
{12}
45 км 9/4 300 м
[]
-0.7 -2.9 85 -9 -9 1013.8 1010.2
ЮВ 10-12
{12}
40 км 10/0
[]
-0.7 -2.5 88 -9 -9 1012.7 1009.2
Ю 11-13
{13}
40 км 6/5
[]
-0.2 -2.0 88 -9 -9 1012.0 1008.4
Ю 12-14
{14}
45 км 10/0
[]
+0.4 -1.4 88 -8 -8 1010.9 1007.3
Ю 12-15
{15}
45 км 8/0
[]
+1.2 -1.3 83 -7 -7 1010.0 1006.5
Ю 12-14
{14}
50 км 10/0 2000 м
[]
+1.5 -0.8 85 -7 -7 1008.7 1005.2
ЮВ 13-14
{15}
45 км 10/0 2000 м
[]
+1.9 -0.5 84 -6 -6 1007.4 1003.8
Ю 14-17
{17}
40 км 10/1 600 м
[]
+2.9 -0.3 79 -5 -5 1005.7 1002.2
Ю 15-20
{20}
35 км 10/1 600 м
[]
+3.6 -0.3 76 -4 -4 1004.4 1000.9 -2.0 +3.6
Ю 18-23
{23}
30 км 9/3 600 м
[]
+4.0 -0.2 74 -4 -4 1003.5 1000.0
Ю 18-24
{24}
10 км морось 10/0 600 м
[]
+3.8 +0.7 80 -5 -5 1002.8 999.3
Ю 17-23
{25}
6000 м слаб. дождь 10/0 300 м
[]
+3.5 +1.9 89 -5 -5 1002.3 998.8
Ю 19-23
{23}
4800 м слаб. дождь 10/0 300 м
[]
+3.7 +2.7 93 -5 -5 1002.0 998.5
Ю 18-22
{24}
7000 м слаб. дождь 10/0 300 м
[]
+3.8 +2.8 93 -5 -5 1001.2 997.7
Ю 18-22
{23}
7000 м слаб. дождь 10/0 300 м
[]
+4.2 +3.3 94 -4 -4 1000.6 997.1
Ю 18-20
{22}
6000 м слаб. дождь 10/0 300 м
[]
+4.3 +3.5 95 -4 -4 1001.1 997.7
Ю 16-20
{20}
14 км в посл. час дождь 10/0 300 м
[]
+4.5 +3.4 93 -4 -4 1001.8 998.3
ЮЗ 14-17
{19}
15 км 10/0 300 м
[]
+4.6 +3.4 92 -3 -3 1002.2 998.8
ЮЗ 12-13
{16}
18 км 10/0 300 м
[]
+4.6 +3.2 91 -3 -3 1002.8 999.4
Ю 12-14
{15}
19 км 10/0 300 м
[]
+4.4 +3.3 93 -3 -3 1003.1 999.6
Ю 11-12
{13}
17 км 10/0 300 м
[]
+4.4 +3.3 93 -3 -3 1003.5 1000.0 +3.5 +4.7
Местоположение метеостанции Кюльмяпихлая (Финляндия): широта 61.14 долгота 21.30 высота над уровнем моря 4 м.
В архиве по умолчанию представлена погода на Кюльмяпихлая за последнюю неделю. Архивные данные за месяц целиком и за предыдущие месяцы, начиная с января 2011 года, Вы можете получить, выбрав интересующий диапазон дат из раскрывающегося списка и нажав кнопку "Найти!".
*Определитесь, кто Вы:
Внимание! Время в таблицах - всемирное. Для получения местного времени необходимо прибавить поправку, которая равна 1 ч.
Смотрите также архив погоды в соседних городах и на ближайших метеорологических станциях:
Партнеры нашего сайта:      
Пояснения к столбцам:
  • Ветер - указаны скорость ветра в м/с - средняя за 10 мин, порывы в срок и между сроками (в фигурных скобках) и направление, откуда дует ветер: С - северный,
  • СВ - северо-восточный, В - восточный, ЮВ - юго-восточный, Ю - южный, ЮЗ - юго-западный, З - западный, СЗ - северо-западный.
  • Видимость - горизонтальная дальность видимости в метрах или километрах. При видимости от 1 до 10 км при отсутствии осадков обычно наблюдается дымка, при ухудшении видимости до 1 км и менее - туман. В сухую погоду видимость может ухудшаться дымом, пылью или мглою.
  • Явления - указаны атмосферные явления, наблюдавшиеся в срок или в последний час перед сроком; фигурными скобками обозначены явления, наблюдавшиеся между сроками (за 1-3 часа до срока); квадратными скобками обозначены град или гололедные отложения с указанием их диаметра в мм.
  • Облачность - указаны через наклонную черту общая и нижняя облачность в баллах и высота нижней границы облаков в метрах; квадратными скобками обозначены формы облаков: Ci - перистые, Cs - перисто-слоистые, Cc - перисто-кучевые, Ac - высококучевые, As - высокослоистые, Sc - слоисто-кучевые, Ns - слоисто-дождевые, Cu - кучевые, Cb - кучево-дождевые. Подробнее классификацию облаков см. в Атласе облаков (PDF).
  • T - Температура воздуха - температура, измеренная на высоте 2 м над землей.
  • Td - Температура точки росы - температура, при понижении до которой содержащийся в воздухе водяной пар достигнет насыщения.
  • f - Относительная влажность воздуха - влажноcть воздуха, измеренная на высоте 2 м над землей.
  • Te - Эффективная температура - температура, которую ощущает одетый по сезону человек в тени. Характеристика душности погоды. При расчете учитывается влияние влажности воздуха и скорости ветра на теплоощущения человека.
  • Tes - Эффективная температура на солнце - температура, которую ощущает человек, с поправкой на солнечный нагрев. Характеристика знойности погоды. Зависит от высоты солнца над горизонтом, облачности и скорости ветра. Ночью, в пасмурную погоду, а также при ветре 12 м/с и более поправка равна нулю.
  • P - Атмосферное давление - приведенное к уровню моря атмосферное давление.
  • Po - Атмосферное давление - измеренное на уровне метеостанции атмосферное давление.
  • Tmin - Минимальная температура - минимум температуры воздуха на высоте 2 м над землей.
  • Tmax - Максимальная температура - максимум температуры воздуха на высоте 2 м над землей.
  • R - Количество осадков - Количество выпавших осадков за период времени, мм. При наведении курсора мыши на число - период времени, за который выпало указанное количество осадков.
  • R24 - Количество осадков - Количество выпавших осадков за 24 часа, мм.
  • S - Снежный покров - Высота снежного покрова, см. При наведении курсора мыши на число - состояние снежного покрова и степень покрытия местности в баллах.